Location: Township of Marena
(38.1747°N, 99.6798°W)
Time: 11:56:17
(UTC+00:00)

Cosmos 2082 Rocket - Pass Details

Date: 26 October 2020
Orbit: 833 x 854 km, 71.0° (Epoch: 24 November)

Event Time Altitude Azimuth Distance (km) Brightness Sun altitude
Rises 11:04:40 0° 190° (S) 3,363 5.2 -23.1°
Reaches altitude 10° 11:07:07 10° 187° (S) 2,432 4.5 -22.6°
Maximum altitude 11:12:36 61° 108° (ESE) 943 2.7 -21.5°
Drops below altitude 10° 11:18:07 10° 30° (NNE) 2,449 5.0 -20.4°
Sets 11:20:35 0° 27° (NNE) 3,388 5.7 -19.9°
